Location: Nicosia
(35.1670°N, 33.3670°E)
Time: 12:19:00
(UTC+02:00)

Hubble Space Telescope - Visible Passes

Search period start: 29 November 2023 00:00
Search period end: 09 December 2023 00:00
Orbit: 519 x 523 km, 28.5° (Epoch: 28 November)

Date Brightness Start Highest point End Pass type
(mag) Time Alt. Az. Time Alt. Az. Time Alt. Az.
29 Nov 2.1 17:36:01 10° WSW 17:39:35 31° S 17:42:45 12° ESE visible
29 Nov 3.6 19:16:46 10° WSW 19:17:44 15° SW 19:17:44 15° SW visible
30 Nov 2.2 17:19:38 10° WSW 17:23:13 31° S 17:26:47 10° ESE visible
30 Nov 3.1 19:00:32 10° WSW 19:02:28 18° SW 19:02:28 18° SW visible
01 Dec 2.3 17:03:16 10° WSW 17:06:49 30° S 17:10:22 10° ESE visible
01 Dec 2.9 18:44:18 10° WSW 18:47:07 18° SSW 18:47:17 18° SSW visible
02 Dec 3.1 18:28:07 10° WSW 18:30:41 16° SSW 18:32:11 14° S visible
03 Dec 3.3 18:11:58 10° SW 18:14:13 15° SSW 18:16:28 10° SSE visible
04 Dec 3.5 17:55:56 10° SW 17:57:44 13° SSW 17:59:33 10° S visible
05 Dec 3.7 17:40:09 10° SW 17:41:14 11° SSW 17:42:20 10° S visible
